STARLINK-5735, 55603

Orbit data source: Space-Track

STARLINK-5735, 55603 is a payload satellite owned by SpaceX/Seattle (US) in LEO that was launched on Sun, 12 Feb 2023 UTC via an FALCON 9 launch vehicle from the Air Force Eastern Test Range (AFETR). Payload-class satellites include a variety of spacecraft equipped with specific instruments for various scientific and technological missions. These include communications satellites like Starlink; space stations such as the ISS; scientific satellites like the Hubble; Earth observation satellites from companies like Planet Labs, Umbra, and HawkEye 360; GPS; miniature CubeSats for education and research; and military/defense satellites.

Loading next visibility...
Identifier
55603, 2023-020AL
Orbit
LEO
Country
Flag of USUS
Related business
Manufacturer
SpaceX/Seattle
Mission
Operational Commercial Communications
Bus & Motor
STARLINK, Unknown motor
Mass
305 kg wet, ~290 kg dry
Launch date (UTC)
2023-02-12 (3 years ago)
Launch vehicle
FALCON 9
Launch site
Air Force Eastern Test Range (AFETR)
Object type
Payload
Rocket body
Debris
Shape & HBR
Box + 1 Pan, 4.4 m
Radar Cross Section
13.562 m², Large (>1 m²)

Expand to show TLE details & history
Last TLE update: 16 hours ago

TLE from 16 hours ago
0 STARLINK-5735
1 55603U 23020AL  25260.23644948 -.00001362  00000-0 -85775-4 0  9991
2 55603  43.0055 214.4884 0001351 275.0967  84.9721 15.02528022142976
Epoch: 2025-09-17T05:40Z
TLE epoch observation values (Epoch: 2025-09-17T05:40:29.235Z)
Latitude
-0.00001°
Longitude
132.95128°
Altitude
558.801 km
Speed
7.584 km/s
True Right ascension
14h 17m 57s
True Declination
0° 00' 00"
Sunlit
Object was in daylight at epoch
Visualization orbit readout
Latitude
Unknown
Longitude
Unknown
Altitude
Unknown
Speed
Unknown
Apparent Right ascension
Unknown
Apparent Declination
Unknown
Sunlit
N/A
Visualization observer readout
Local Sidereal Time
14:10:34
Azimuth
Unknown
Elevation
Unknown
Doppler factor
Unknown
Orbital elements
Apogee altitude
561.965 km
Perigee altitude
560.09 km
Semi-major axis
6,939.164 km
Eccentricity
0.00014
Inclination
43.0055°
RAAN
214.4884°
Arg. of periapsis
275.0967°
True anomaly
84.98752°
Mean anomaly
84.9721°
Eccentric anomaly
84.97981°
Mean motion
3.75476 °/min
Orbital period
95.88 mins
BSTAR
-0.000085775
Loading maneuver chart data...
Computing Atmospheric mass density...
Loading historical data...
Loading historical data...
Loading historical data...
Loading historical data...
Loading historical data...
Loading historical data...
Loading historical data...

Documentation

Showing up to 5 results
|